Beaver, WV

11:11 PM EDT on August 31, 2016 (GMT -0400)
Raleigh County Memorial

Weather History for KBKW - March, 2014

Change the Weather History Date:

Sunday, March 9, 2014

  Actual Average Record
Temperature  
Mean Temperature 40 °F 40 °F  
Max Temperature 47 °F 49 °F 76 °F (2016)
Min Temperature 32 °F 30 °F 3 °F (1960)
Degree Days  
Heating Degree Days 25 25  
Month to date heating degree days 277 237  
Since 1 July heating degree days 4485 4238  
Cooling Degree Days 0 0  
Month to date cooling degree days 0 0  
Year to date cooling degree days 0 0  
Moisture  
Dew Point 30 °F    
Average Humidity 64    
Maximum Humidity 85    
Minimum Humidity 42    
Precipitation  
Precipitation T in 0.11 in 1.01 in (1922)
Month to date precipitation 0.90 1.00  
Year to date precipitation 6.00 6.57  
Snow  
Snow 0.00 in - - ()
Month to date snowfall 6.5  
Since 1 September snowfall 67.2  
Snow Depth 0.00 in    
Sea Level Pressure  
Sea Level Pressure 30.09 in    
Wind  
Wind Speed 9 mph (WNW)    
Max Wind Speed 18 mph    
Max Gust Speed 28 mph    
Visibility 7 miles    
Events Rain    
T = Trace of Precipitation, MM = Missing Value Source: NWS Daily Summary

Daily Weather History Graph

Daily Weather History Graph

Search for Another Location

Airport or City:

Trip Planner

Search our weather history database for the weather conditions in past years. The results will help you decide how hot, cold, wet, or windy it might be!

Date:

Astronomy

Mar. 09, 2014 Rise Set
Actual Time 7:44 AM EDT 7:25 PM EDT
Civil Twilight 7:18 AM EDT 7:52 PM EDT
Nautical Twilight 6:48 AM EDT 8:22 PM EDT
Astronomical Twilight 6:17 AM EDT 8:53 PM EDT
Moon 1:22 PM EDT (3/9) 3:04 AM EDT (3/9)
Length of Visible Light 12h 33m
Length of Day
11h 41m
First Quarter, 61% of the Moon is Illuminated
Mar 9
First Quarter
Mar 16
Full
Mar 23
Last Quarter
Mar 30
New
Apr 7
First Quarter

Hourly Weather History & Observations

Time (EDT) Temp. Windchill Dew Point Humidity Pressure Visibility Wind Dir Wind Speed Gust Speed Precip Events Conditions
12:51 AM 45.0 °F 39.7 °F 35.1 °F 68% 30.02 in 10.0 mi West 10.4 mph - 0.00 in   Overcast
1:51 AM 44.1 °F 38.6 °F 35.1 °F 71% 30.02 in 10.0 mi West 10.4 mph - 0.00 in Rain Light Rain
3:51 AM 43.0 °F 37.7 °F 36.0 °F 76% 30.01 in 10.0 mi WNW 9.2 mph - 0.00 in Rain Light Rain
4:09 AM 42.1 °F 36.1 °F 36.0 °F 79% 30.02 in 10.0 mi WNW 10.4 mph - 0.00 in Rain Light Rain
4:51 AM 42.1 °F 37.1 °F 36.0 °F 79% 30.03 in 10.0 mi NW 8.1 mph - 0.00 in   Overcast
5:35 AM 39.9 °F 32.9 °F 34.0 °F 79% 30.04 in 6.0 mi NNW 11.5 mph - N/A   Haze
5:51 AM 39.0 °F 31.0 °F 34.0 °F 82% 30.05 in 3.0 mi NNW 13.8 mph - N/A   Haze
6:04 AM 37.9 °F 29.6 °F 35.1 °F 89% 30.05 in 2.5 mi NNW 13.8 mph - N/A   Overcast
6:37 AM 37.0 °F 30.4 °F 34.0 °F 89% 30.06 in 1.8 mi NW 9.2 mph - N/A   Overcast
6:48 AM 37.4 °F 29.8 °F 33.8 °F 87% 30.07 in 1.5 mi NNW 11.5 mph - N/A   Overcast
6:51 AM 37.0 °F 29.3 °F 34.0 °F 89% 30.09 in 1.5 mi NW 11.5 mph - N/A   Overcast
7:22 AM 36.0 °F 28.5 °F 33.1 °F 89% 30.08 in 2.5 mi NW 10.4 mph - N/A   Overcast
7:27 AM 36.0 °F 28.0 °F 32.0 °F 86% 30.09 in 3.0 mi NW 11.5 mph 19.6 mph N/A   Overcast
7:39 AM 36.0 °F 27.5 °F 32.0 °F 86% 30.09 in 4.0 mi NW 12.7 mph - N/A   Overcast
7:51 AM 36.0 °F 29.6 °F 30.9 °F 82% 30.12 in 4.0 mi WNW 8.1 mph 18.4 mph N/A   Haze
8:51 AM 35.1 °F 26.4 °F 30.9 °F 85% 30.15 in 3.0 mi WNW 12.7 mph - N/A   Overcast
9:27 AM 35.1 °F 28.6 °F 30.9 °F 85% 30.12 in 2.5 mi NW 8.1 mph - N/A   Overcast
9:51 AM 35.1 °F 27.4 °F 30.9 °F 85% 30.17 in 2.5 mi NW 10.4 mph - N/A   Overcast
9:59 AM 35.1 °F 27.9 °F 30.9 °F 85% 30.12 in 3.0 mi NW 9.2 mph - N/A   Overcast
10:38 AM 35.1 °F 26.4 °F 30.0 °F 82% 30.13 in 5.0 mi NW 12.7 mph - N/A   Haze
10:51 AM 35.1 °F 26.4 °F 28.9 °F 78% 30.18 in 5.0 mi NNW 12.7 mph - N/A   Haze
11:46 AM 35.6 °F 27.1 °F 28.4 °F 75% 30.14 in 8.0 mi NW 12.7 mph - N/A   Overcast
11:51 AM 35.1 °F 26.9 °F 28.0 °F 76% 30.18 in 8.0 mi NNW 11.5 mph - N/A   Overcast
12:51 PM 37.0 °F 29.3 °F 27.0 °F 67% 30.17 in 9.0 mi NW 11.5 mph 17.3 mph N/A   Overcast
1:51 PM 39.9 °F 35.1 °F 28.0 °F 63% 30.15 in 10.0 mi West 6.9 mph - N/A   Scattered Clouds
2:51 PM 41.0 °F 34.7 °F 27.0 °F 57% 30.13 in 10.0 mi NW 10.4 mph - N/A   Clear
3:51 PM 44.1 °F 40.1 °F 26.1 °F 49% 30.10 in 10.0 mi WNW 6.9 mph - N/A   Clear
4:51 PM 46.0 °F 41.0 °F 27.0 °F 47% 30.08 in 10.0 mi West 10.4 mph - N/A   Clear
5:51 PM 46.9 °F - 26.1 °F 44% 30.07 in 10.0 mi West 8.1 mph - N/A   Clear
6:51 PM 46.0 °F 40.6 °F 25.0 °F 44% 30.08 in 10.0 mi West 11.5 mph - N/A   Clear
7:51 PM 42.1 °F 38.4 °F 26.1 °F 53% 30.09 in 10.0 mi West 5.8 mph - N/A   Clear
8:51 PM 41.0 °F 39.0 °F 26.1 °F 55% 30.10 in 10.0 mi WNW 3.5 mph - N/A   Clear
9:51 PM 39.0 °F - 25.0 °F 57% 30.11 in 10.0 mi Calm Calm - N/A   Clear
10:51 PM 37.0 °F 34.5 °F 25.0 °F 62% 30.10 in 10.0 mi SW 3.5 mph - N/A   Clear
11:51 PM 35.1 °F - 25.0 °F 67% 30.09 in 10.0 mi Calm Calm - N/A   Clear
12:51 AM 36.0 °F 30.3 °F 26.1 °F 67% 30.06 in 10.0 mi SW 6.9 mph - N/A   Clear